AO-07 1 07530U 74089B 26036.56952300 -.00000051 00000-0 -25567-4 0 9997 2 07530 101.9971 48.4149 0012269 23.6522 97.1795 12.53695634344020 UO-11 1 14781U 84021B 26036.85138237 .00003200 00000-0 33425-3 0 9995 2 14781 97.7897 4.0571 0006026 256.2903 103.7644 14.90386170237565 AO-27 1 22825U 93061C 26036.75106129 .00000193 00000-0 90537-4 0 9997 2 22825 98.7051 104.1259 0009343 122.7781 237.4303 14.30902163688205 FO-29 1 24278U 96046B 26036.55997556 -.00000005 00000-0 27928-4 0 9994 2 24278 98.5423 263.3194 0350858 77.9822 286.0409 13.53266581455360 GO-32 1 25397U 98043D 26036.84914832 .00000143 00000-0 82110-4 0 9990 2 25397 98.9985 26.3518 0000718 181.8768 178.2407 14.24396894432633 ISS 1 25544U 98067A 26036.50214262 .00012860 00000-0 24571-3 0 9998 2 25544 51.6316 231.4727 0011155 67.3664 292.8503 15.48414003551342 NO-44 1 26931U 01043C 26036.84737171 .00000284 00000-0 13676-3 0 9994 2 26931 67.0487 223.9627 0007059 266.3426 93.6869 14.31893742271649 SO-50 1 27607U 02058C 26036.78226612 .00003071 00000-0 38022-3 0 9997 2 27607 64.5527 175.4412 0074415 286.4546 72.8391 14.82654339244974 CO-55 1 27844U 03031E 26036.59908544 .00000535 00000-0 25084-3 0 9998 2 27844 98.6774 46.7991 0009156 201.7730 158.3060 14.24238759172946 CO-57 1 27848U 03031J 26035.95980955 .00000380 00000-0 18611-3 0 9993 2 27848 98.6803 45.9868 0008714 223.0239 137.0259 14.23537045172568 RS-22 1 27939U 03042A 26036.87927965 .00001904 00000-0 30340-3 0 9996 2 27939 98.3396 217.5627 0010829 330.6286 158.7997 14.73159735196218 CO-58 1 28895U 05043F 26036.84059675 .00003319 00000-0 53424-3 0 9992 2 28895 98.2777 189.8776 0013165 261.4739 98.4976 14.72174913 82426 CO-65 1 32785U 08021C 26036.86599145 .00010318 00000-0 67531-3 0 9998 2 32785 97.8166 15.7922 0011150 110.7021 249.5403 15.07900628965397 CO-66 1 32791U 08021J 26036.51228863 .00029913 00000-0 11062-2 0 9991 2 32791 97.7494 28.6503 0005457 70.6075 289.5753 15.27642087967153 RS-30 1 32953U 08025A 26036.83835274 .00000082 00000-0 51959-3 0 9996 2 32953 82.4990 77.1483 0018492 235.9321 124.0003 12.43175015803375 SRMSAT 1 37841U 11058D 26036.68349419 .00000536 00000-0 14731-3 0 9992 2 37841 19.9711 135.4160 0011578 196.7827 317.6264 14.11535642739218 ZACUBE-1 1 39417U 13066B 26036.31273955 .00010711 00000-0 85247-3 0 9991 2 39417 97.8173 357.9848 0041005 331.8432 28.0573 14.99911337660957 Delfi-N3xt 1 39428U 13066N 26036.71988532 .00016289 00000-0 14810-2 0 9994 2 39428 97.8350 317.3439 0075529 284.3472 74.9371 14.93115011654998 GOMX-1 1 39430U 13066Q 26036.81149106 .00004592 00000-0 69560-3 0 9991 2 39430 97.6575 245.5028 0130467 138.9123 222.1999 14.68959668650629 LO-74 1 39440U 13066AA 26036.85759971 .00007926 00000-0 74885-3 0 9993 2 39440 97.8774 345.5020 0060752 102.2852 258.5178 14.92571364657391 AO-73 1 39444U 13066AE 26036.84840315 .00016831 00000-0 11021-2 0 9996 2 39444 97.8146 5.8746 0036002 291.7835 67.9563 15.07271677659860 DTUSAT-2 1 40030U 14033W 26035.92677734 .00012479 00000-0 71233-3 0 9991 2 40030 98.0812 25.5056 0007363 339.0374 21.0552 15.12874900632674 EO-80 1 40032U 14033Y 26036.85944604 .00015297 00000-0 86835-3 0 9994 2 40032 98.0698 25.8123 0005742 261.5509 98.5070 15.13030813632799 LILACSAT-2 1 40908U 15049K 26036.82798980 .00032480 00000-0 64673-3 0 9994 2 40908 97.4853 68.9685 0008044 23.5307 336.6309 15.46818395575419 Horyu-4 1 41340U 16012D 26036.79835096 .00095381 00000-0 12276-2 0 9992 2 41340 30.9926 290.1351 0002111 56.4324 303.6528 15.57641896550125 Lapan A3 1 41603U 16040E 26036.89408221 .00006864 00000-0 22344-3 0 9998 2 41603 97.1462 37.4726 0012206 120.8858 239.3586 15.32094796534708 CAS-2T 1 41847U 16066G 26036.77176029 .00002964 00000-0 42378-3 0 9997 2 41847 98.3946 113.9650 0343329 168.0208 192.9417 14.44352716485826 TechnoSat 1 42829U 17042E 26036.42920423 .00006075 00000-0 44259-3 0 9997 2 42829 97.4098 199.3141 0017986 178.1793 181.9503 15.03972195466891 AO-91 1 43017U 17073E 26036.06900093 .00012056 00000-0 54921-3 0 9995 2 43017 97.4898 266.0622 0159099 64.1463 297.6076 15.10127368445434 S-Net D 1 43186U 18014G 26036.71543975 .00009698 00000-0 51923-3 0 9999 2 43186 97.5465 302.3884 0010224 109.0089 251.2252 15.15190860438846 S-Net B 1 43187U 18014H 26036.65838110 .00009998 00000-0 53549-3 0 9990 2 43187 97.5472 302.3141 0010961 105.5640 254.6803 15.15163012438830 S-Net A 1 43188U 18014J 26036.71492181 .00009697 00000-0 51901-3 0 9998 2 43188 97.5481 302.5556 0010839 105.9631 254.2796 15.15196759438843 S-Net C 1 43189U 18014K 26036.72761302 .00010132 00000-0 54248-3 0 9997 2 43189 97.5498 302.6224 0012315 100.1090 260.1532 15.15156682437396 Ten-Koh 1 43677U 18084G 26036.47219942 .00005123 00000-0 39328-3 0 9992 2 43677 98.0721 223.3196 0009267 199.6143 160.4725 15.02215771396384 PO-101 1 43678U 18084H 26036.83324678 .00002623 00000-0 21713-3 0 9997 2 43678 98.1069 227.5609 0008391 226.2968 133.7560 14.99803951396529 QO-100 1 43700U 18090A 26036.77516090 .00000143 00000-0 00000 0 0 9991 2 43700 0.0134 122.5279 0002404 239.9693 78.2207 1.00269476 26350 MinXSS-2 1 43758U 18099A 26036.73100694 .00047058 00000-0 12465-2 0 9995 2 43758 97.4693 109.9516 0008917 26.0406 334.1285 15.38171308393863 AO-95 1 43770U 18099N 26036.66640795 .00019834 00000-0 83061-3 0 9994 2 43770 97.4572 97.5748 0010611 91.9372 268.3080 15.23529877393176 SNUSat 2 1 43782U 18099AA 26036.66924419 .00014973 00000-0 70588-3 0 9994 2 43782 97.4258 92.1548 0011682 42.9763 317.2382 15.19524555393046 SnugLite 1 43784U 18099AC 26036.63917573 .00020807 00000-0 86179-3 0 9992 2 43784 97.4072 92.3824 0003853 52.4411 307.7176 15.23936607393267 ITASat 1 1 43786U 18099AE 26036.72556723 .00012304 00000-0 62150-3 0 9996 2 43786 97.4231 90.9032 0014682 91.4696 268.8220 15.17130456392965 EAGLET 1 1 43790U 18099AJ 26036.58836683 .00006962 00000-0 41080-3 0 9993 2 43790 97.4431 89.7140 0012989 82.1072 278.1633 15.11778113392448 ESEO 1 43792U 18099AL 26036.65039899 .00003316 00000-0 24516-3 0 9992 2 43792 97.4173 79.5812 0013605 66.1162 294.1488 15.03780494392031 JO-97 1 43803U 18099AX 26036.63237301 .00027357 00000-0 96905-3 0 9993 2 43803 97.4321 99.3265 0006539 29.2243 330.9361 15.29066819393495 Suomi 100 1 43804U 18099AY 26036.67296335 .00021752 00000-0 86966-3 0 9999 2 43804 97.4389 97.7433 0011157 31.3416 328.8484 15.25066988393357 ISAT 1 43879U 18111D 26036.74851862 .00073808 00000-0 14353-2 0 9995 2 43879 97.5909 323.8621 0008865 70.8213 289.3995 15.47299403390736 UWE-4 1 43880U 18111E 26036.74741421 .00045853 00000-0 12268-2 0 9998 2 43880 97.5866 319.9336 0011970 79.5055 280.7537 15.37834703390521 Sparrow 1 43881U 18111F 26036.83411320 .00075830 00000-0 13264-2 0 9996 2 43881 97.6108 328.0763 0008099 94.4966 265.7210 15.50337116390883 Prox-1 1 44339U 19036A 26036.76953403 .00023502 00000-0 25255-2 0 9999 2 44339 23.9949 269.8086 0006990 317.0600 42.9353 14.87015366353863 Taurus 1 1 44530U 19059C 26036.84989356 .00017565 00000-0 29121-2 0 9990 2 44530 98.6260 193.7984 0008392 3.5259 356.6003 14.70267666339335 TO-108 1 44881U 19093C 26036.84215853 .00001953 00000-0 22777-3 0 9996 2 44881 97.7674 112.2248 0014133 153.3947 206.7996 14.86267397331909 FloripaSat 1 1 44885U 19093G 26036.81575664 .00012482 00000-0 94986-3 0 9996 2 44885 97.7891 130.2651 0011863 151.0606 209.1279 15.02193317332918 RS-44 1 44909U 19096E 26036.50653489 .00000015 00000-0 87456-5 0 9999 2 44909 82.5170 67.2110 0218636 92.2775 270.3376 12.79746770285504 SALSAT 1 46495U 20068K 26036.71209266 .00015111 00000-0 56293-3 0 9991 2 46495 97.8835 32.0107 0011783 50.8176 309.4106 15.27503875295271 CSS (TIANHE-1) 1 48274U 21035A 26036.70484919 .00033602 00000-0 41781-3 0 9993 2 48274 41.4677 42.5669 0005509 7.6510 352.4411 15.59253081272613 CUTE 1 49263U 21088D 26036.77787736 .00050145 00000-0 53203-3 0 9993 2 49263 97.4266 127.2642 0004606 73.5723 286.6042 15.63935053241888 TeikyoSat 4 1 49396U 21102B 26036.64789713 .00003810 00000-0 24472-3 0 9993 2 49396 97.3835 71.1775 0012977 32.4347 327.7677 15.08957003232885 Z-Sat 1 49399U 21102E 26036.86442194 .00006199 00000-0 31513-3 0 9996 2 49399 97.3506 76.1512 0016696 351.3195 8.7747 15.17085369233526 KOSEN 1 1 49402U 21102H 26036.65467935 .00013866 00000-0 56121-3 0 9999 2 49402 97.3387 81.4188 0013041 317.3924 42.6301 15.24729979233960 HO-113 1 50466U 21131B 26036.84603916 .00000877 00000-0 28540-3 0 9997 2 50466 98.4997 129.9806 0005028 125.0798 235.0863 14.41207341216194 SNUGLITE 2 1 52899U 22065F 26036.82390787 .00002009 00000-0 39199-3 0 9994 2 52899 98.1975 182.0680 0008569 78.9309 281.2856 14.64038454191779 UmKA 1 (RS40S) 1 57172U 23091G 26036.82757531 .00010764 00000-0 51478-3 0 9998 2 57172 97.5245 96.0623 0012465 212.2991 147.7481 15.19104784144052 CubeBel-2 (EU11S) 1 57175U 23091K 26036.84277398 .00019710 00000-0 77201-3 0 9993 2 57175 97.5238 99.0914 0009902 212.2615 147.8019 15.25788485144251 RS-38S 1 57189U 23091Z 26036.89136451 .00034857 00000-0 11421-2 0 9997 2 57189 97.5260 104.0768 0008216 170.8415 189.2977 15.31538087144564 SONATE-2 1 59112U 24043Q 26036.83314030 .00047776 00000-0 88294-3 0 9995 2 59112 97.5361 180.3030 0008226 328.5759 31.4999 15.48889402107498 MO-122 1 60209U 24125G 26036.52872141 .00057220 00000-0 98802-3 0 9994 2 60209 97.2483 252.0947 0013333 350.2835 9.8157 15.50717711 89080 GRBBeta 1 60237U 24128C 26036.76173365 .00008229 00000-0 56644-3 0 9999 2 60237 61.9914 316.9790 0053978 107.6347 253.0650 15.05416545 86477 Curium One 1 60242U 24128H 26036.31468306 .00014997 00000-0 89585-3 0 9997 2 60242 61.9804 312.0483 0053995 104.4313 256.2782 15.10105894 86529 ROBUSTA-3A 1 60243U 24128J 26036.47564754 .00016179 00000-0 98318-3 0 9997 2 60243 61.9883 313.2674 0054398 101.8569 258.8633 15.09421853 86521 CatSat 1 60246U 24125J 26036.54216115 .00064839 00000-0 13173-2 0 9991 2 60246 97.2244 248.5080 0029165 309.9930 49.8760 15.45637101 86978 HYPERVIEW-1G (RS66S) 1 61772U 24199AP 26036.85467814 .00108834 00000-0 16692-2 0 9998 2 61772 97.3141 272.1877 0010961 45.7170 314.4981 15.53863499114150 AO-123 1 61781U 24199AY 26036.84232448 .00020174 00000-0 62456-3 0 9990 2 61781 97.3197 266.7278 0015871 62.0847 298.2000 15.33373238113787 HADES-R (SO-124) 1 62690U 25009CK 26032.99082620 .05664363 23962-5 28116-2 0 9998 2 62690 97.3536 123.7794 0009923 302.1245 57.9081 16.20799086 58844 HYDRA-T 1 62692U 25009CM 26028.19742799 .10589489 24473-5 20739-2 0 9999 2 62692 97.3569 119.0624 0010828 297.3030 62.7162 16.31546071 58115 JINJUSat 1B 1 63210U 25052A 26036.60716453 .00028839 00000-0 10256-2 0 9991 2 63210 97.4160 293.4965 0003444 158.7126 201.4257 15.28939584 49967 NUSHSAT 1 1 63211U 25052B 26036.68891656 .00033453 00000-0 11364-2 0 9998 2 63211 97.4138 293.7893 0003241 159.3690 200.7682 15.30404187 49990 TEVEL2-4 1 63213U 25052D 26036.65159615 .00031897 00000-0 11130-2 0 9990 2 63213 97.4060 293.1828 0002017 165.3916 194.7383 15.29543141 49976 TEVEL2-5 1 63214U 25052E 26036.66021073 .00031781 00000-0 11126-2 0 9995 2 63214 97.4061 293.1701 0001929 165.8392 194.2902 15.29438288 49979 TEVEL2-6 1 63215U 25052F 26036.66915014 .00031727 00000-0 11121-2 0 9998 2 63215 97.4062 293.1655 0001945 169.0144 191.1139 15.29396215 49979 TEVEL2-1 1 63217U 25052H 26036.13547139 .00025866 00000-0 91958-3 0 9995 2 63217 97.4039 292.3974 0001532 191.9962 168.1242 15.28978078 49885 TEVEL2-3 1 63218U 25052J 26036.65729192 .00031347 00000-0 11108-2 0 9993 2 63218 97.4037 292.9258 0001446 188.1596 171.9621 15.29042901 49960 TEVEL2-2 1 63219U 25052K 26036.65972133 .00030493 00000-0 10818-2 0 9997 2 63219 97.4039 292.9201 0001530 190.7895 169.3313 15.29012883 49961 TEVEL2-9 1 63237U 25052AD 26036.67873678 .00028638 00000-0 10674-2 0 9991 2 63237 97.4098 292.5625 0004617 243.8232 116.2533 15.27391755 49923 TEVEL2-7 1 63238U 25052AE 26035.97803289 .00023651 00000-0 88881-3 0 9991 2 63238 97.4104 291.8275 0004765 246.3593 113.7146 15.27159757 49811 TEVEL2-8 1 63239U 25052AF 26036.63979637 .00028411 00000-0 10660-2 0 9995 2 63239 97.4101 292.4667 0004676 243.9521 116.1237 15.27172841 49914 HYDRA-W 1 63490U 25052BL 26036.83469137 .00158809 00000-0 25181-2 0 9994 2 63490 97.4001 296.8018 0003654 193.0816 167.0342 15.52814922 50237 HADES-ICM (SO-125) 1 63492U 25052BN 26036.66560114 .00141387 00000-0 25651-2 0 9999 2 63492 97.4003 296.1435 0003805 209.7437 150.3598 15.49070261 50176 Dragonfly 1 65729U 98067XH 26031.05194254 .08662331 12285-4 96629-3 0 9997 2 65729 51.6000 237.6139 0006569 265.0285 94.9990 16.36242872 20999 RSP-03 1 65732U 98067XL 26036.72723958 .00782112 28519-3 16707-2 0 9995 2 65732 51.6175 211.8577 0006247 274.4192 85.6103 15.98005384 21851 BOTAN 1 65942U 98067XP 26036.68487642 .00396212 00000-0 17752-2 0 9995 2 65942 51.6194 218.3956 0005655 257.2305 102.8066 15.82518268 18506 CEVROSAT1 1 66309U 25248S 26036.53636853 .00008016 00000-0 39020-3 0 9993 2 66309 45.4051 106.8099 0002584 356.9381 3.1488 15.18902372 14481 SPIRONE 1 66657U 25274H 26036.78142353 .00004402 00000-0 42958-3 0 9991 2 66657 97.7426 328.0671 0013926 90.8009 269.4806 14.92859737 10619 K-HERO 1 66660U 25274L 26036.75780719 .00004798 00000-0 46192-3 0 9998 2 66660 97.7434 328.1036 0015965 95.1438 265.1604 14.93334221 10613 SNUGLITE-III DURI 1 66661U 25274M 26036.75171336 .00004870 00000-0 46744-3 0 9992 2 66661 97.7430 328.1090 0016563 96.3946 263.9160 14.93437029 10615 SilverSat 1 66909U 98067XV 26036.75451155 .00153487 00000-0 16776-2 0 9997 2 66909 51.6266 227.1590 0002559 216.5400 143.5419 15.62300399 10188 SAKHACUBE-CHOLBON 1 67290U 25313AU 26036.80683048 .00017258 00000-0 75393-3 0 9995 2 67290 97.4065 113.6693 0011114 97.9848 262.2650 15.22118322 5970 QMR-KWT 1 67291U 25313AV 26036.80391264 .00022829 00000-0 98708-3 0 9997 2 67291 97.4064 113.6732 0010859 97.7265 262.5205 15.22412531 5978 IO-86 1 40931U 25360.30710720 .00000000 00000-0 12800-3 0 00 2 40931 6.0006 332.5373 0012733 338.8432 8.1437 14.79075515 01